カタログに戻る

STARLINK-38209

運用中通信SSO
NORAD 100383·PAYLOAD·🇺🇸 United States

打ち上げ Aug 19, 2026 から Vandenberg Space Force Base

Loading…

次のパス (今後24時間)

TLE

最新Source: Space-Track

元期: Sep 14, 2026, 20:23 UTC

1 A0383U 26190N   26257.84969838 -.00298512  00000-0 -24461-2 0  9997
2 A0383  97.2836 111.8896 0001348 109.6093 250.5315 15.71287395  5452

AllMySatでSTARLINK-38209をリアルタイム追跡

Download on the App Store